Back to catalog

STARLINK-37384

AliveCommunicationsVLEO
NORAD 69460·PAYLOAD·🇺🇸 United States

Launched Jun 8, 2026 from Cape Canaveral Space Force Station

Loading…

Next Passes (next 24 hours)

TLE

FreshSource: CelesTrak SupGP

Epoch: Sep 14, 2026, 22:49 UTC

1 69460C 26127T   26257.95118056 -.00054782  00000+0 -16174-2 0  2575
2 69460  53.1579 191.9022 0001258  94.7478  11.4854 15.34440410    16

Track STARLINK-37384 in real time with AllMySat

Download on the App Store